VIV7333 MMSM-MMMY

Flight info

Callsign VIV7333
Flight time 1h 9m
Altitude 38000
Route AXIRI2D AXIRI UT138 CVM UJ15E RETOS RETOS1A
Aircraft A320/M-SDE3FGHIRWY/LB1

Departure

Time 2026-05-06 17:46
Airport Felipe Ángeles International Airport (MMSM)

Arrival

Time 2026-05-06 18:56
Airport Monterrey International Airport (MMMY)
Time Latitude Longitude Altitude Speed Heading
2026-05-06 16:40 19.73702 -99.01885 7362 ft 0 kts 319°
2026-05-06 17:34 19.73700 -99.01883 7363 ft 3 kts 319°
2026-05-06 17:34 19.73679 -99.01864 7362 ft 4 kts 319°
2026-05-06 17:35 19.73658 -99.01847 7364 ft 4 kts 334°
2026-05-06 17:35 19.73634 -99.01841 7365 ft 4 kts 15°
2026-05-06 17:35 19.73621 -99.01848 7364 ft 0 kts 49°
2026-05-06 17:39 19.73625 -99.01844 7362 ft 1 kts 49°
2026-05-06 17:39 19.73651 -99.01812 7363 ft 10 kts 48°
2026-05-06 17:39 19.73718 -99.01731 7362 ft 19 kts 49°
2026-05-06 17:39 19.73820 -99.01607 7362 ft 24 kts 49°
2026-05-06 17:40 19.73956 -99.01555 7362 ft 22 kts 334°
2026-05-06 17:40 19.74074 -99.01660 7362 ft 22 kts 319°
2026-05-06 17:40 19.74193 -99.01771 7365 ft 23 kts 318°
2026-05-06 17:40 19.74315 -99.01886 7363 ft 24 kts 318°
2026-05-06 17:41 19.74440 -99.02004 7365 ft 24 kts 318°
2026-05-06 17:41 19.74559 -99.02118 7363 ft 21 kts 317°
2026-05-06 17:41 19.74602 -99.02245 7364 ft 20 kts 241°
2026-05-06 17:41 19.74514 -99.02362 7363 ft 21 kts 231°
2026-05-06 17:42 19.74418 -99.02483 7362 ft 22 kts 230°
2026-05-06 17:42 19.74318 -99.02604 7363 ft 22 kts 227°
2026-05-06 17:42 19.74211 -99.02733 7364 ft 25 kts 229°
2026-05-06 17:42 19.74090 -99.02879 7363 ft 28 kts 229°
2026-05-06 17:43 19.73955 -99.03044 7361 ft 31 kts 229°
2026-05-06 17:43 19.73807 -99.03226 7360 ft 34 kts 229°
2026-05-06 17:43 19.73647 -99.03423 7361 ft 36 kts 229°
2026-05-06 17:43 19.73477 -99.03633 7363 ft 39 kts 229°
2026-05-06 17:44 19.73381 -99.03755 7361 ft 17 kts 244°
2026-05-06 17:44 19.73409 -99.03836 7360 ft 0 kts 315°
2026-05-06 17:45 19.73411 -99.03839 7360 ft 3 kts 316°
2026-05-06 17:45 19.73496 -99.03848 7360 ft 20 kts 28°
2026-05-06 17:45 19.73534 -99.03814 7360 ft 0 kts 45°
2026-05-06 17:45 19.73550 -99.03796 7362 ft 21 kts 45°
2026-05-06 17:46 19.73840 -99.03440 7360 ft 104 kts 49°
2026-05-06 17:46 19.74462 -99.02678 7363 ft 166 kts 49°
2026-05-06 17:46 19.75310 -99.01618 7575 ft 201 kts 49°
2026-05-06 17:46 19.76240 -99.00471 8670 ft 208 kts 49°
2026-05-06 17:47 19.77211 -98.99280 8846 ft 224 kts 50°
2026-05-06 17:47 19.78274 -98.97958 8952 ft 248 kts 50°
2026-05-06 17:47 19.79445 -98.96497 9166 ft 271 kts 50°
2026-05-06 17:47 19.80712 -98.94924 9535 ft 287 kts 47°
2026-05-06 17:48 19.82304 -98.93616 10089 ft 295 kts 28°
2026-05-06 17:48 19.84151 -98.92628 10330 ft 298 kts 27°
2026-05-06 17:48 19.86023 -98.91663 10941 ft 300 kts 26°
2026-05-06 17:48 19.87913 -98.90699 11579 ft 302 kts 26°
2026-05-06 17:49 19.89885 -98.89814 11944 ft 318 kts 19°
2026-05-06 17:49 19.92104 -98.89346 12271 ft 332 kts
2026-05-06 17:49 19.94435 -98.89331 12805 ft 338 kts 359°
2026-05-06 17:49 19.96796 -98.89493 13388 ft 342 kts 358°
2026-05-06 17:50 19.99179 -98.89666 13958 ft 345 kts 358°
2026-05-06 17:50 20.01586 -98.89782 14475 ft 349 kts
2026-05-06 17:50 20.04027 -98.89826 14880 ft 353 kts
2026-05-06 17:50 20.06484 -98.89808 14962 ft 354 kts
2026-05-06 17:51 20.08946 -98.89747 14959 ft 354 kts
2026-05-06 17:51 20.11403 -98.89667 14950 ft 353 kts
2026-05-06 17:51 20.13860 -98.89587 14950 ft 353 kts
2026-05-06 17:51 20.16316 -98.89512 14950 ft 353 kts
2026-05-06 17:52 20.18770 -98.89445 14954 ft 353 kts
2026-05-06 17:52 20.21223 -98.89463 14953 ft 354 kts 356°
2026-05-06 17:52 20.23637 -98.90001 14953 ft 356 kts 342°
2026-05-06 17:52 20.25887 -98.91129 15178 ft 361 kts 328°
2026-05-06 17:53 20.27870 -98.92738 15697 ft 366 kts 320°
2026-05-06 17:53 20.29821 -98.94495 16248 ft 369 kts 320°
2026-05-06 17:53 20.31791 -98.96265 16785 ft 372 kts 319°
2026-05-06 17:53 20.33778 -98.98053 17327 ft 375 kts 319°
2026-05-06 17:54 20.35778 -98.99858 17873 ft 379 kts 319°
2026-05-06 17:54 20.37798 -99.01679 18391 ft 382 kts 319°
2026-05-06 17:54 20.39833 -99.03515 18877 ft 384 kts 319°
2026-05-06 17:54 20.42003 -99.05192 19370 ft 388 kts 329°
2026-05-06 17:55 20.44474 -99.06374 19875 ft 391 kts 342°
2026-05-06 17:55 20.47140 -99.06980 20355 ft 394 kts 354°
2026-05-06 17:55 20.49892 -99.06996 20825 ft 397 kts
2026-05-06 17:55 20.52661 -99.06844 21282 ft 400 kts
2026-05-06 17:56 20.55451 -99.06696 21755 ft 403 kts
2026-05-06 17:56 20.58260 -99.06551 22227 ft 406 kts
2026-05-06 17:56 20.61094 -99.06409 22697 ft 409 kts
2026-05-06 17:56 20.63939 -99.06265 23151 ft 411 kts
2026-05-06 17:57 20.66810 -99.06120 23591 ft 414 kts
2026-05-06 17:57 20.69697 -99.05976 23983 ft 417 kts
2026-05-06 17:57 20.72600 -99.05832 24375 ft 419 kts
2026-05-06 17:57 20.75522 -99.05686 24768 ft 421 kts
2026-05-06 17:58 20.78462 -99.05535 25126 ft 424 kts
2026-05-06 17:58 20.81422 -99.05383 25472 ft 427 kts
2026-05-06 17:58 20.84395 -99.05230 25877 ft 429 kts
2026-05-06 17:58 20.87387 -99.05078 26264 ft 431 kts
2026-05-06 17:59 20.90393 -99.04929 26634 ft 434 kts
2026-05-06 17:59 20.93416 -99.04777 27022 ft 436 kts
2026-05-06 17:59 20.96453 -99.04621 27403 ft 438 kts
2026-05-06 17:59 20.99505 -99.04464 27789 ft 440 kts
2026-05-06 18:00 21.02579 -99.04306 28135 ft 443 kts
2026-05-06 18:00 21.05665 -99.04147 28476 ft 446 kts
2026-05-06 18:00 21.08776 -99.03987 28825 ft 449 kts
2026-05-06 18:00 21.11856 -99.03830 29191 ft 450 kts
2026-05-06 18:01 21.14992 -99.03669 29536 ft 453 kts
2026-05-06 18:01 21.18153 -99.03507 29887 ft 456 kts
2026-05-06 18:01 21.21330 -99.03346 30175 ft 458 kts
2026-05-06 18:01 21.24523 -99.03184 30504 ft 461 kts
2026-05-06 18:02 21.27736 -99.03021 30830 ft 463 kts
2026-05-06 18:02 21.30958 -99.02857 31159 ft 464 kts
2026-05-06 18:02 21.34181 -99.02692 31626 ft 463 kts
2026-05-06 18:02 21.37395 -99.02524 32100 ft 461 kts
2026-05-06 18:03 21.40598 -99.02355 32607 ft 460 kts
2026-05-06 18:03 21.43790 -99.02189 33103 ft 459 kts
2026-05-06 18:03 21.46973 -99.02026 33577 ft 457 kts
2026-05-06 18:03 21.50150 -99.01864 34008 ft 456 kts
2026-05-06 18:04 21.53316 -99.01702 34366 ft 455 kts
2026-05-06 18:04 21.56473 -99.01542 34753 ft 454 kts 360°
2026-05-06 18:04 21.59620 -99.01383 35138 ft 452 kts
2026-05-06 18:04 21.62760 -99.01223 35519 ft 451 kts 360°
2026-05-06 18:05 21.65891 -99.01065 35879 ft 450 kts 360°
2026-05-06 18:05 21.69019 -99.00905 36216 ft 449 kts
2026-05-06 18:05 21.72137 -99.00743 36567 ft 448 kts
2026-05-06 18:05 21.75210 -99.00582 36907 ft 448 kts
2026-05-06 18:06 21.78317 -99.00417 37247 ft 447 kts
2026-05-06 18:06 21.81423 -99.00256 37579 ft 446 kts
2026-05-06 18:06 21.84521 -99.00098 37769 ft 447 kts
2026-05-06 18:06 21.87615 -98.99938 37808 ft 444 kts
2026-05-06 18:07 21.93768 -98.99617 37808 ft 442 kts 360°
2026-05-06 18:07 21.99911 -98.99301 37802 ft 441 kts 360°
2026-05-06 18:08 22.06044 -98.98991 37801 ft 441 kts 360°
2026-05-06 18:08 22.12181 -98.98675 37802 ft 441 kts 360°
2026-05-06 18:09 22.18314 -98.98352 37797 ft 442 kts 360°
2026-05-06 18:09 22.24456 -98.98037 37817 ft 442 kts 359°
2026-05-06 18:10 22.30599 -98.97719 37812 ft 442 kts 359°
2026-05-06 18:10 22.36745 -98.97393 37814 ft 442 kts 359°
2026-05-06 18:11 22.41857 -98.97125 37814 ft 443 kts 359°
2026-05-06 18:11 22.49047 -98.96752 37816 ft 442 kts 359°
2026-05-06 18:12 22.55153 -98.96434 37821 ft 442 kts 360°
2026-05-06 18:12 22.61298 -98.96112 37822 ft 442 kts 359°
2026-05-06 18:13 22.67444 -98.95790 37827 ft 442 kts 359°
2026-05-06 18:13 22.73586 -98.95472 37816 ft 442 kts 359°
2026-05-06 18:14 22.78721 -98.95207 37816 ft 441 kts 359°
2026-05-06 18:14 22.84856 -98.94889 37816 ft 441 kts 359°
2026-05-06 18:15 22.90986 -98.94566 37830 ft 441 kts 359°
2026-05-06 18:15 22.97115 -98.94239 37822 ft 441 kts 359°
2026-05-06 18:16 23.03203 -98.93918 37822 ft 441 kts 359°
2026-05-06 18:16 23.09332 -98.93598 37821 ft 441 kts 359°
2026-05-06 18:17 23.15461 -98.93276 37831 ft 441 kts 359°
2026-05-06 18:17 23.21593 -98.92954 37840 ft 441 kts 359°
2026-05-06 18:18 23.27726 -98.92632 37839 ft 441 kts 359°
2026-05-06 18:18 23.33840 -98.92523 37836 ft 436 kts 351°
2026-05-06 18:19 23.39895 -98.93085 37839 ft 437 kts 351°
2026-05-06 18:19 23.45955 -98.93651 37849 ft 437 kts 351°
2026-05-06 18:20 23.52021 -98.94205 37880 ft 438 kts 351°
2026-05-06 18:20 23.58094 -98.94757 37880 ft 438 kts 351°
2026-05-06 18:21 23.64176 -98.95307 37878 ft 438 kts 350°
2026-05-06 18:21 23.70252 -98.95869 37876 ft 438 kts 350°
2026-05-06 18:22 23.76260 -98.96511 37879 ft 437 kts 349°
2026-05-06 18:22 23.79302 -98.96886 37708 ft 445 kts 348°
2026-05-06 18:22 23.82425 -98.97284 37455 ft 458 kts 348°
2026-05-06 18:23 23.85620 -98.97686 37194 ft 464 kts 349°
2026-05-06 18:23 23.88836 -98.98078 36932 ft 465 kts 349°
2026-05-06 18:23 23.92049 -98.98458 36651 ft 464 kts 349°
2026-05-06 18:23 23.95252 -98.98832 36403 ft 462 kts 349°
2026-05-06 18:24 23.98440 -98.99202 36154 ft 460 kts 349°
2026-05-06 18:24 24.01619 -98.99569 35906 ft 458 kts 349°
2026-05-06 18:24 24.04778 -98.99937 35682 ft 456 kts 349°
2026-05-06 18:24 24.07922 -99.00310 35435 ft 454 kts 349°
2026-05-06 18:25 24.11055 -99.00685 35190 ft 452 kts 349°
2026-05-06 18:25 24.14177 -99.01056 34970 ft 450 kts 348°
2026-05-06 18:25 24.17283 -99.01423 34737 ft 449 kts 348°
2026-05-06 18:25 24.20378 -99.01790 34506 ft 447 kts 348°
2026-05-06 18:26 24.23463 -99.02156 34272 ft 445 kts 348°
2026-05-06 18:26 24.26536 -99.02523 34055 ft 443 kts 348°
2026-05-06 18:26 24.29592 -99.02889 33826 ft 441 kts 348°
2026-05-06 18:26 24.32641 -99.03254 33573 ft 440 kts 348°
2026-05-06 18:27 24.35675 -99.03615 33311 ft 438 kts 348°
2026-05-06 18:27 24.38705 -99.03975 33063 ft 437 kts 348°
2026-05-06 18:27 24.41722 -99.04334 32809 ft 436 kts 348°
2026-05-06 18:27 24.44733 -99.04693 32559 ft 434 kts 348°
2026-05-06 18:28 24.47732 -99.05053 32310 ft 433 kts 348°
2026-05-06 18:28 24.50728 -99.05414 32066 ft 433 kts 348°
2026-05-06 18:28 24.53716 -99.05771 31822 ft 431 kts 348°
2026-05-06 18:28 24.56656 -99.06120 31579 ft 430 kts 348°
2026-05-06 18:29 24.59633 -99.06474 31335 ft 430 kts 348°
2026-05-06 18:29 24.62604 -99.06832 31099 ft 430 kts 348°
2026-05-06 18:29 24.65574 -99.07188 30855 ft 428 kts 348°
2026-05-06 18:29 24.68527 -99.07540 30626 ft 427 kts 348°
2026-05-06 18:30 24.71478 -99.07893 30397 ft 426 kts 348°
2026-05-06 18:30 24.74416 -99.08245 30175 ft 425 kts 348°
2026-05-06 18:30 24.77356 -99.08599 29946 ft 425 kts 348°
2026-05-06 18:30 24.80290 -99.08954 29691 ft 423 kts 348°
2026-05-06 18:31 24.83222 -99.09309 29416 ft 424 kts 348°
2026-05-06 18:31 24.86144 -99.09661 29147 ft 422 kts 348°
2026-05-06 18:31 24.89053 -99.10035 28882 ft 418 kts 344°
2026-05-06 18:31 24.91831 -99.10832 28617 ft 408 kts 333°
2026-05-06 18:32 24.94361 -99.12159 28355 ft 398 kts 322°
2026-05-06 18:32 24.96568 -99.13930 28104 ft 388 kts 311°
2026-05-06 18:32 24.98436 -99.16030 27852 ft 382 kts 306°
2026-05-06 18:32 25.00242 -99.18184 27597 ft 382 kts 306°
2026-05-06 18:33 25.02046 -99.20319 27345 ft 380 kts 306°
2026-05-06 18:33 25.03848 -99.22447 27102 ft 379 kts 306°
2026-05-06 18:33 25.05643 -99.24567 26873 ft 377 kts 306°
2026-05-06 18:33 25.07425 -99.26674 26631 ft 375 kts 306°
2026-05-06 18:34 25.09200 -99.28778 26391 ft 374 kts 306°
2026-05-06 18:34 25.10964 -99.30875 26150 ft 372 kts 306°
2026-05-06 18:34 25.12721 -99.32963 25910 ft 371 kts 306°
2026-05-06 18:34 25.14471 -99.35043 25670 ft 369 kts 306°
2026-05-06 18:35 25.16216 -99.37120 25445 ft 368 kts 306°
2026-05-06 18:35 25.17953 -99.39190 25214 ft 367 kts 306°
2026-05-06 18:35 25.19685 -99.41252 24989 ft 365 kts 306°
2026-05-06 18:35 25.21395 -99.43297 24645 ft 361 kts 304°
2026-05-06 18:36 25.23030 -99.45340 24228 ft 359 kts 303°
2026-05-06 18:36 25.24646 -99.47430 23789 ft 358 kts 303°
2026-05-06 18:36 25.26248 -99.49532 23359 ft 358 kts 302°
2026-05-06 18:36 25.27848 -99.51634 22860 ft 357 kts 303°
2026-05-06 18:37 25.29449 -99.53723 22429 ft 355 kts 303°
2026-05-06 18:37 25.31047 -99.55798 21986 ft 354 kts 303°
2026-05-06 18:37 25.32640 -99.57865 21555 ft 353 kts 303°
2026-05-06 18:37 25.34230 -99.59925 21121 ft 352 kts 303°
2026-05-06 18:38 25.35814 -99.61980 20677 ft 351 kts 303°
2026-05-06 18:38 25.37395 -99.64030 20247 ft 350 kts 303°
2026-05-06 18:38 25.38976 -99.66076 19799 ft 350 kts 304°
2026-05-06 18:38 25.40556 -99.68119 19360 ft 350 kts 304°
2026-05-06 18:39 25.42139 -99.70165 18933 ft 350 kts 304°
2026-05-06 18:39 25.43713 -99.72224 18490 ft 349 kts 301°
2026-05-06 18:39 25.44824 -99.74541 18031 ft 337 kts 281°
2026-05-06 18:40 25.45997 -99.79529 17008 ft 335 kts 278°
2026-05-06 18:40 25.46546 -99.82039 16518 ft 335 kts 278°
2026-05-06 18:40 25.47088 -99.84549 16054 ft 335 kts 278°
2026-05-06 18:40 25.47622 -99.87057 15573 ft 334 kts 278°
2026-05-06 18:41 25.48249 -99.89538 15088 ft 334 kts 282°
2026-05-06 18:41 25.48919 -99.91998 14635 ft 333 kts 282°
2026-05-06 18:41 25.49594 -99.94446 14173 ft 333 kts 285°
2026-05-06 18:41 25.50440 -99.96827 13724 ft 332 kts 288°
2026-05-06 18:42 25.51319 -99.99187 13257 ft 331 kts 288°
2026-05-06 18:42 25.52238 -100.01520 12758 ft 331 kts 292°
2026-05-06 18:42 25.53301 -100.03781 12271 ft 330 kts 294°
2026-05-06 18:42 25.54362 -100.06028 11768 ft 329 kts 294°
2026-05-06 18:43 25.55409 -100.08271 11304 ft 328 kts 294°
2026-05-06 18:43 25.56454 -100.10519 10828 ft 327 kts 296°
2026-05-06 18:43 25.57618 -100.12691 10373 ft 329 kts 299°
2026-05-06 18:43 25.58803 -100.14859 9923 ft 329 kts 299°
2026-05-06 18:44 25.59967 -100.17006 9447 ft 329 kts 298°
2026-05-06 18:44 25.61245 -100.19104 8954 ft 331 kts 310°
2026-05-06 18:44 25.62922 -100.20851 8458 ft 329 kts 317°
2026-05-06 18:44 25.64619 -100.22529 7978 ft 325 kts 316°
2026-05-06 18:45 25.66262 -100.24168 7556 ft 309 kts 316°
2026-05-06 18:45 25.67808 -100.25735 7200 ft 293 kts 316°
2026-05-06 18:45 25.69266 -100.27233 6846 ft 280 kts 316°
2026-05-06 18:45 25.70212 -100.28213 6629 ft 272 kts 316°
2026-05-06 18:46 25.71980 -100.30081 6159 ft 259 kts 316°
2026-05-06 18:46 25.73319 -100.31350 5797 ft 248 kts 327°
2026-05-06 18:46 25.74837 -100.32200 5437 ft 242 kts 337°
2026-05-06 18:46 25.76380 -100.32867 5090 ft 233 kts 339°
2026-05-06 18:47 25.77869 -100.33496 4800 ft 222 kts 339°
2026-05-06 18:47 25.79249 -100.34090 4756 ft 202 kts 339°
2026-05-06 18:47 25.80517 -100.34631 4772 ft 193 kts 339°
2026-05-06 18:47 25.81737 -100.35155 5224 ft 184 kts 338°
2026-05-06 18:48 25.82942 -100.35690 5497 ft 185 kts 337°
2026-05-06 18:48 25.84160 -100.36203 5613 ft 193 kts 340°
2026-05-06 18:48 25.85510 -100.36670 5856 ft 204 kts 343°
2026-05-06 18:48 25.86813 -100.37001 5989 ft 185 kts 354°
2026-05-06 18:49 25.88027 -100.36770 5992 ft 173 kts 21°
2026-05-06 18:49 25.88909 -100.35985 5980 ft 153 kts 51°
2026-05-06 18:49 25.89345 -100.34945 5961 ft 149 kts 75°
2026-05-06 18:49 25.89490 -100.33809 5942 ft 150 kts 79°
2026-05-06 18:50 25.89532 -100.32654 5682 ft 150 kts 97°
2026-05-06 18:50 25.89266 -100.31565 5505 ft 146 kts 114°
2026-05-06 18:50 25.88744 -100.30533 5124 ft 159 kts 117°
2026-05-06 18:50 25.88184 -100.29517 4963 ft 156 kts 118°
2026-05-06 18:51 25.87614 -100.28481 4775 ft 157 kts 118°
2026-05-06 18:51 25.87042 -100.27442 4577 ft 159 kts 116°
2026-05-06 18:51 25.86470 -100.26403 4406 ft 156 kts 117°
2026-05-06 18:51 25.85917 -100.25399 4213 ft 149 kts 118°
2026-05-06 18:52 25.85385 -100.24430 4014 ft 145 kts 119°
2026-05-06 18:52 25.84873 -100.23491 3803 ft 139 kts 120°
2026-05-06 18:52 25.84370 -100.22572 3577 ft 138 kts 120°
2026-05-06 18:52 25.83864 -100.21651 3350 ft 141 kts 119°
2026-05-06 18:53 25.83353 -100.20717 3156 ft 142 kts 119°
2026-05-06 18:53 25.82847 -100.19794 2944 ft 138 kts 119°
2026-05-06 18:53 25.82354 -100.18897 2787 ft 137 kts 120°
2026-05-06 18:53 25.81862 -100.18000 2611 ft 135 kts 120°
2026-05-06 18:54 25.81378 -100.17116 2451 ft 133 kts 120°
2026-05-06 18:54 25.80898 -100.16243 2282 ft 132 kts 119°
2026-05-06 18:54 25.80422 -100.15379 2111 ft 131 kts 119°
2026-05-06 18:54 25.79942 -100.14506 1917 ft 137 kts 121°
2026-05-06 18:55 25.79442 -100.13582 1766 ft 140 kts 120°
2026-05-06 18:55 25.78953 -100.12642 1515 ft 143 kts 123°
2026-05-06 18:55 25.78425 -100.11724 1347 ft 137 kts 122°
2026-05-06 18:55 25.77975 -100.10929 1272 ft 74 kts 124°
2026-05-06 18:56 25.77869 -100.10785 1272 ft 5 kts 229°
2026-05-06 18:56 25.77859 -100.10837 1272 ft 13 kts 266°
2026-05-06 18:56 25.77860 -100.10900 1272 ft 0 kts 271°
2026-05-06 18:57 25.77861 -100.10907 1272 ft 3 kts 271°
2026-05-06 18:57 25.77864 -100.11014 1273 ft 18 kts 271°
2026-05-06 18:58 25.77895 -100.11170 1275 ft 23 kts 299°
2026-05-06 18:58 25.77940 -100.11265 1276 ft 0 kts 284°
2026-05-06 18:58 25.77941 -100.11266 1276 ft 1 kts 284°
2026-05-06 18:58 25.77927 -100.11298 1278 ft 8 kts 223°
2026-05-06 18:59 25.77888 -100.11327 1276 ft 3 kts 210°
2026-05-06 18:59 25.77876 -100.11335 1276 ft 0 kts 210°